TEVEL2-2

Last updated on Sun Aug 09 2026 00:03:16 GMT+0000 (Coordinated Universal Time)

1 63219U 25052K 26220.46990616 .00009714 00000+0 28342-3 0 9990 2 63219 97.3803 116.4742 0001231 2.9958 357.1293 15.35549307 78117
UTC large
Height (km)
Speed (km/s)
/
Latitude / Longitude
Inclination (degrees)
Orbital Period (minutes)
Azimuth
Elevation
Range (km)
Doppler Factor

Next 0 passes for location: London (51.5072 / 0.1276)

No passes found over London.
TEVEL2-2